The Dalles, WA

7:24 AM PDT on September 18, 2019 (GMT -0700)
Columbia Gorge Regional-The Dalles

Weather History for KDLS - May, 2019

Change the Weather History Date:

Saturday, May 4, 2019

  Actual Average Record
Temperature  
Mean Temperature 62 °F -  
Max Temperature 78 °F 72 °F 95 °F (1966)
Min Temperature 46 °F 44 °F 32 °F (1999)
Degree Days  
Heating Degree Days 3    
Growing Degree Days 12 (Base 50)    
Moisture  
Dew Point 42 °F    
Average Humidity 49    
Maximum Humidity 74    
Minimum Humidity 27    
Precipitation  
Precipitation 0.00 in - - ()
Sea Level Pressure  
Sea Level Pressure 29.86 in    
Wind  
Wind Speed 8 mph (NW)    
Max Wind Speed 20 mph    
Max Gust Speed 24 mph    
Visibility 10 miles    
Events      
Averages and records for this station are not official NWS values.
T = Trace of Precipitation, MM = Missing Value Source: NWS Daily Summary

Daily Weather History Graph

Daily Weather History Graph

Search for Another Location

Airport or City:

Astronomy

May. 04, 2019 Rise Set
Actual Time 5:48 AM PDT 8:15 PM PDT
Civil Twilight 5:15 AM PDT 8:48 PM PDT
Nautical Twilight 4:33 AM PDT 9:30 PM PDT
Astronomical Twilight 3:46 AM PDT 10:17 PM PDT
Moon 6:07 AM PDT (5/4) 8:07 PM PDT (5/4)
Length of Visible Light 15h 33m
Length of Day
14h 27m
Waning Crescent, 0% of the Moon is Illuminated
May 4
Waning Crescent
May 4
New
May 11
First Quarter
May 18
Full
May 26
Last Quarter

Hourly Weather History & Observations

Time (PDT) Temp. Windchill Dew Point Humidity Pressure Visibility Wind Dir Wind Speed Gust Speed Precip Events Conditions
12:53 AM 57.9 °F - 41.0 °F 53% 29.93 in 10.0 mi WSW 6.9 mph - N/A   Clear
1:53 AM 55.9 °F - 43.0 °F 62% 29.92 in 10.0 mi NW 8.1 mph - N/A   Clear
2:53 AM 54.0 °F - 44.1 °F 69% 29.92 in 10.0 mi WNW 11.5 mph - N/A   Clear
3:53 AM 48.9 °F - 39.0 °F 69% 29.92 in 10.0 mi West 4.6 mph - N/A   Clear
4:53 AM 51.1 °F - 43.0 °F 74% 29.93 in 10.0 mi WNW 9.2 mph - N/A   Clear
5:53 AM 46.0 °F 43.9 °F 37.0 °F 71% 29.94 in 10.0 mi ESE 4.6 mph - N/A   Clear
6:53 AM 48.0 °F - 37.9 °F 68% 29.95 in 10.0 mi ESE 6.9 mph - N/A   Clear
7:53 AM 53.1 °F - 42.1 °F 66% 29.95 in 10.0 mi NW 4.6 mph - N/A   Clear
8:53 AM 55.9 °F - 43.0 °F 62% 29.95 in 10.0 mi Variable 3.5 mph - N/A   Clear
9:53 AM 60.1 °F - 44.1 °F 55% 29.94 in 10.0 mi Variable 3.5 mph - N/A   Clear
10:53 AM 66.0 °F - 45.0 °F 47% 29.92 in 10.0 mi NNW 8.1 mph - N/A   Clear
11:53 AM 71.1 °F - 42.1 °F 35% 29.89 in 10.0 mi Variable 6.9 mph - N/A   Clear
12:53 PM 72.0 °F - 43.0 °F 35% 29.87 in 10.0 mi Variable 3.5 mph - N/A   Clear
1:53 PM 75.0 °F - 41.0 °F 29% 29.85 in 10.0 mi North - - N/A   Clear
2:53 PM 78.1 °F - 41.0 °F 27% 29.82 in 10.0 mi NNW 8.1 mph - N/A   Clear
3:53 PM 77.0 °F - 42.1 °F 29% 29.79 in 10.0 mi NNW 12.7 mph - N/A   Clear
4:53 PM 75.9 °F - 43.0 °F 31% 29.77 in 10.0 mi NNW 16.1 mph - N/A   Clear
5:53 PM 73.9 °F - 43.0 °F 33% 29.76 in 10.0 mi NW 19.6 mph 24.2 mph N/A   Clear
6:53 PM 73.0 °F - 44.1 °F 35% 29.75 in 10.0 mi NNW 11.5 mph - N/A   Clear
7:53 PM 69.1 °F - 44.1 °F 40% 29.75 in 10.0 mi NW 12.7 mph - N/A   Clear
8:53 PM 66.9 °F - 45.0 °F 45% 29.77 in 10.0 mi NNW 11.5 mph - N/A   Clear
9:53 PM 66.9 °F - 43.0 °F 42% 29.78 in 10.0 mi NW 9.2 mph - N/A   Clear
10:53 PM 64.9 °F - 43.0 °F 45% 29.78 in 10.0 mi NW 10.4 mph 17.3 mph N/A   Clear
11:53 PM 64.9 °F - 43.0 °F 45% 29.77 in 10.0 mi NW 13.8 mph 23.0 mph N/A   Clear